Time,TemperatureF,DewpointF,PressureIn,WindDirection,WindDirectionDegrees,WindSpeedMPH,WindSpeedGustMPH,Humidity,HourlyPrecipIn,Conditions,Clouds,dailyrainin,SoftwareType,DateUTC
2013-01-29 00:01:00,36.0,36.0,29.68,NW,320,14.0,22.0,100,-99.99,,,-99.99,,2013-01-29 06:01:00,
2013-01-29 00:11:00,36.0,36.0,29.69,NW,320,17.0,-999.0,100,-99.99,,,-99.99,,2013-01-29 06:11:00,
2013-01-29 00:21:00,36.0,36.0,29.68,NNW,330,14.0,24.0,100,-99.99,,,-99.99,,2013-01-29 06:21:00,
2013-01-29 00:31:00,36.0,36.0,29.67,NNW,330,15.0,21.0,100,-99.99,,,-99.99,,2013-01-29 06:31:00,
2013-01-29 00:41:00,36.0,36.0,29.67,NNW,340,13.0,21.0,100,-99.99,,,-99.99,,2013-01-29 06:41:00,
2013-01-29 00:52:00,34.0,34.0,29.68,NNW,330,14.0,-999.0,100,-99.99,,,-99.99,,2013-01-29 06:52:00,
2013-01-29 01:01:00,34.0,34.0,29.68,NNW,330,14.0,-999.0,100,-99.99,,,-99.99,,2013-01-29 07:01:00,
2013-01-29 01:11:00,34.0,34.0,29.68,NNW,330,9.0,-999.0,100,-99.99,,,-99.99,,2013-01-29 07:11:00,
2013-01-29 01:21:00,34.0,34.0,29.69,NNW,330,8.0,-999.0,100,-99.99,,,-99.99,,2013-01-29 07:21:00,
2013-01-29 01:31:00,34.0,34.0,29.69,NW,310,7.0,-999.0,100,-99.99,,,-99.99,,2013-01-29 07:31:00,
2013-01-29 01:41:00,34.0,34.0,29.69,NW,320,8.0,-999.0,100,-99.99,,,-99.99,,2013-01-29 07:41:00,
2013-01-29 01:52:00,34.0,34.0,29.70,NW,310,10.0,-999.0,100,-99.99,,,-99.99,,2013-01-29 07:52:00,
2013-01-29 02:02:00,34.0,34.0,29.70,NW,310,10.0,-999.0,100,-99.99,,,-99.99,,2013-01-29 08:02:00,
2013-01-29 02:11:00,34.0,34.0,29.71,NW,310,10.0,-999.0,100,-99.99,,,-99.99,,2013-01-29 08:11:00,
2013-01-29 02:21:00,34.0,34.0,29.69,NW,320,10.0,-999.0,100,-99.99,,,-99.99,,2013-01-29 08:21:00,
2013-01-29 02:31:00,34.0,34.0,29.68,WNW,300,13.0,-999.0,100,-99.99,,,-99.99,,2013-01-29 08:31:00,
2013-01-29 02:41:00,34.0,34.0,29.68,NW,310,13.0,-999.0,100,-99.99,,,-99.99,,2013-01-29 08:41:00,
2013-01-29 02:52:00,34.0,34.0,29.66,NNW,330,13.0,-999.0,100,-99.99,,,-99.99,,2013-01-29 08:52:00,
2013-01-29 03:01:00,34.0,34.0,29.66,NNW,330,13.0,-999.0,100,-99.99,,,-99.99,,2013-01-29 09:01:00,
2013-01-29 03:11:00,34.0,34.0,29.68,NW,320,10.0,-999.0,100,-99.99,,,-99.99,,2013-01-29 09:11:00,
2013-01-29 03:21:00,34.0,34.0,29.68,NW,320,6.0,-999.0,100,-99.99,,,-99.99,,2013-01-29 09:21:00,
2013-01-29 03:31:00,32.0,32.0,29.65,North,350,10.0,-999.0,100,-99.99,,,-99.99,,2013-01-29 09:31:00,
2013-01-29 03:42:00,32.0,32.0,29.65,NW,320,9.0,-999.0,100,-99.99,,,-99.99,,2013-01-29 09:42:00,
2013-01-29 03:52:00,32.0,32.0,29.67,WNW,300,9.0,-999.0,100,-99.99,,,-99.99,,2013-01-29 09:52:00,
2013-01-29 04:01:00,32.0,32.0,29.67,WNW,300,9.0,-999.0,100,-99.99,,,-99.99,,2013-01-29 10:01:00,
2013-01-29 04:11:00,32.0,32.0,29.69,WNW,300,6.0,-999.0,100,-99.99,,,-99.99,,2013-01-29 10:11:00,
2013-01-29 04:21:00,32.0,32.0,29.70,WNW,290,10.0,-999.0,100,-99.99,,,-99.99,,2013-01-29 10:21:00,
2013-01-29 04:32:00,32.0,32.0,29.70,WNW,300,9.0,-999.0,100,-99.99,,,-99.99,,2013-01-29 10:32:00,
2013-01-29 04:41:00,32.0,32.0,29.69,NW,310,9.0,-999.0,100,-99.99,,,-99.99,,2013-01-29 10:41:00,
2013-01-29 04:52:00,32.0,32.0,29.68,NW,310,10.0,-999.0,100,-99.99,,,-99.99,,2013-01-29 10:52:00,
2013-01-29 05:01:00,32.0,32.0,29.68,NW,310,10.0,-999.0,100,-99.99,,,-99.99,,2013-01-29 11:01:00,
2013-01-29 05:11:00,34.0,34.0,29.68,NW,310,9.0,-999.0,100,-99.99,,,-99.99,,2013-01-29 11:11:00,
2013-01-29 05:21:00,34.0,34.0,29.68,NW,320,9.0,-999.0,100,-99.99,,,-99.99,,2013-01-29 11:21:00,
2013-01-29 05:32:00,34.0,34.0,29.68,NW,320,9.0,-999.0,100,-99.99,,,-99.99,,2013-01-29 11:32:00,
2013-01-29 05:42:00,34.0,34.0,29.66,NW,320,10.0,-999.0,100,-99.99,,,-99.99,,2013-01-29 11:42:00,
2013-01-29 05:52:00,34.0,34.0,29.66,NNW,330,9.0,-999.0,100,-99.99,,,-99.99,,2013-01-29 11:52:00,
2013-01-29 06:02:00,34.0,34.0,29.66,NNW,330,9.0,-999.0,100,-99.99,,,-99.99,,2013-01-29 12:02:00,
2013-01-29 06:12:00,32.0,32.0,29.67,WNW,300,9.0,-999.0,100,-99.99,,,-99.99,,2013-01-29 12:12:00,
2013-01-29 06:22:00,32.0,32.0,29.68,NW,310,9.0,-999.0,100,-99.99,,,-99.99,,2013-01-29 12:22:00,
2013-01-29 06:32:00,32.0,32.0,29.69,NW,310,9.0,-999.0,100,-99.99,,,-99.99,,2013-01-29 12:32:00,
2013-01-29 06:42:00,32.0,32.0,29.71,NW,310,8.0,-999.0,100,-99.99,,,-99.99,,2013-01-29 12:42:00,
2013-01-29 06:53:00,32.0,32.0,29.70,NW,320,9.0,-999.0,100,-99.99,,,-99.99,,2013-01-29 12:53:00,
2013-01-29 07:02:00,32.0,32.0,29.70,NW,320,9.0,-999.0,100,-99.99,,,-99.99,,2013-01-29 13:02:00,
2013-01-29 07:11:00,32.0,32.0,29.71,NW,310,9.0,-999.0,100,-99.99,,,-99.99,,2013-01-29 13:11:00,
2013-01-29 07:22:00,32.0,32.0,29.72,NW,310,6.0,-999.0,100,-99.99,,,-99.99,,2013-01-29 13:22:00,
2013-01-29 07:32:00,32.0,32.0,29.73,WNW,300,7.0,-999.0,100,-99.99,,,-99.99,,2013-01-29 13:32:00,
2013-01-29 07:42:00,32.0,32.0,29.73,NW,310,8.0,-999.0,100,-99.99,,,-99.99,,2013-01-29 13:42:00,
2013-01-29 07:52:00,32.0,32.0,29.72,NW,320,10.0,-999.0,100,-99.99,,,-99.99,,2013-01-29 13:52:00,
2013-01-29 08:02:00,32.0,32.0,29.72,NW,320,10.0,-999.0,100,-99.99,,,-99.99,,2013-01-29 14:02:00,
2013-01-29 08:12:00,32.0,32.0,29.74,NW,320,8.0,-999.0,100,-99.99,,,-99.99,,2013-01-29 14:12:00,
2013-01-29 08:21:00,32.0,32.0,29.72,NNW,330,9.0,-999.0,100,-99.99,,,-99.99,,2013-01-29 14:21:00,
2013-01-29 08:32:00,32.0,32.0,29.71,NW,320,8.0,-999.0,100,-99.99,,,-99.99,,2013-01-29 14:32:00,
2013-01-29 08:43:00,32.0,32.0,29.71,NW,310,12.0,-999.0,100,-99.99,,,-99.99,,2013-01-29 14:43:00,
2013-01-29 08:52:00,32.0,32.0,29.70,NW,320,12.0,-999.0,100,-99.99,,,-99.99,,2013-01-29 14:52:00,
2013-01-29 09:02:00,32.0,32.0,29.70,NW,320,12.0,-999.0,100,-99.99,,,-99.99,,2013-01-29 15:02:00,
2013-01-29 09:12:00,34.0,34.0,29.70,NW,320,12.0,-999.0,100,-99.99,,,-99.99,,2013-01-29 15:12:00,
2013-01-29 09:22:00,34.0,34.0,29.69,NW,310,14.0,-999.0,100,-99.99,,,-99.99,,2013-01-29 15:22:00,
2013-01-29 09:33:00,36.0,34.0,29.69,NW,320,15.0,-999.0,93,-99.99,,,-99.99,,2013-01-29 15:33:00,
2013-01-29 09:42:00,36.0,36.0,29.68,NW,320,14.0,-999.0,100,-99.99,,,-99.99,,2013-01-29 15:42:00,
2013-01-29 09:53:00,36.0,34.0,29.67,NW,320,18.0,-999.0,93,-99.99,,,-99.99,,2013-01-29 15:53:00,
2013-01-29 10:02:00,36.0,34.0,29.67,NW,320,18.0,-999.0,93,-99.99,,,-99.99,,2013-01-29 16:02:00,
2013-01-29 10:12:00,36.0,34.0,29.66,NNW,330,20.0,-999.0,93,-99.99,,,-99.99,,2013-01-29 16:12:00,
2013-01-29 10:22:00,36.0,34.0,29.68,NW,320,18.0,23.0,93,-99.99,,,-99.99,,2013-01-29 16:22:00,
2013-01-29 10:32:00,36.0,36.0,29.68,NW,320,18.0,24.0,100,-99.99,,,-99.99,,2013-01-29 16:32:00,
2013-01-29 10:42:00,36.0,34.0,29.67,NNW,330,18.0,24.0,93,-99.99,,,-99.99,,2013-01-29 16:42:00,
2013-01-29 10:53:00,36.0,34.0,29.67,NNW,330,18.0,25.0,93,-99.99,,,-99.99,,2013-01-29 16:53:00,
2013-01-29 11:03:00,36.0,34.0,29.67,NNW,330,18.0,25.0,93,-99.99,,,-99.99,,2013-01-29 17:03:00,
2013-01-29 11:12:00,37.0,36.0,29.68,NW,320,18.0,24.0,93,-99.99,,,-99.99,,2013-01-29 17:12:00,
2013-01-29 11:21:00,37.0,36.0,29.68,NNW,330,20.0,-999.0,93,-99.99,,,-99.99,,2013-01-29 17:21:00,
2013-01-29 11:32:00,37.0,36.0,29.68,NNW,330,18.0,-999.0,93,-99.99,,,-99.99,,2013-01-29 17:32:00,
2013-01-29 11:42:00,37.0,36.0,29.68,NNW,340,20.0,24.0,93,-99.99,,,-99.99,,2013-01-29 17:42:00,
2013-01-29 11:52:00,39.0,36.0,29.68,NNW,330,20.0,25.0,86,-99.99,,,-99.99,,2013-01-29 17:52:00,
2013-01-29 12:03:00,39.0,36.0,29.68,NNW,330,20.0,25.0,86,-99.99,,,-99.99,,2013-01-29 18:03:00,
2013-01-29 12:12:00,37.0,36.0,29.67,NNW,330,17.0,24.0,93,-99.99,,,-99.99,,2013-01-29 18:12:00,
2013-01-29 12:22:00,37.0,36.0,29.66,North,350,17.0,25.0,93,-99.99,,,-99.99,,2013-01-29 18:22:00,
2013-01-29 12:33:00,37.0,34.0,29.65,North,350,16.0,25.0,86,-99.99,,,-99.99,,2013-01-29 18:33:00,
2013-01-29 12:42:00,37.0,34.0,29.66,North,350,16.0,-999.0,86,-99.99,,,-99.99,,2013-01-29 18:42:00,
2013-01-29 12:52:00,37.0,34.0,29.66,North,350,15.0,-999.0,86,-99.99,,,-99.99,,2013-01-29 18:52:00,
2013-01-29 13:02:00,37.0,34.0,29.66,North,350,15.0,-999.0,86,-99.99,,,-99.99,,2013-01-29 19:02:00,
2013-01-29 13:12:00,37.0,34.0,29.65,North,350,17.0,23.0,86,-99.99,,,-99.99,,2013-01-29 19:12:00,
2013-01-29 13:22:00,37.0,34.0,29.65,North,350,15.0,18.0,86,-99.99,,,-99.99,,2013-01-29 19:22:00,
2013-01-29 13:32:00,37.0,34.0,29.65,North,350,15.0,22.0,86,-99.99,,,-99.99,,2013-01-29 19:32:00,
2013-01-29 13:42:00,37.0,34.0,29.65,North,350,17.0,23.0,86,-99.99,,,-99.99,,2013-01-29 19:42:00,
2013-01-29 13:52:00,36.0,34.0,29.64,North,350,17.0,22.0,93,-99.99,,,-99.99,,2013-01-29 19:52:00,
2013-01-29 14:02:00,36.0,34.0,29.64,North,350,17.0,22.0,93,-99.99,,,-99.99,,2013-01-29 20:02:00,
2013-01-29 14:12:00,36.0,34.0,29.64,North,360,16.0,23.0,93,-99.99,,,-99.99,,2013-01-29 20:12:00,
2013-01-29 14:22:00,36.0,34.0,29.64,North,350,14.0,21.0,93,-99.99,,,-99.99,,2013-01-29 20:22:00,
2013-01-29 14:33:00,36.0,34.0,29.64,North,350,17.0,21.0,93,-99.99,,,-99.99,,2013-01-29 20:33:00,
2013-01-29 14:42:00,36.0,34.0,29.63,North,350,16.0,22.0,93,-99.99,,,-99.99,,2013-01-29 20:42:00,
2013-01-29 14:53:00,36.0,34.0,29.62,North,350,17.0,22.0,93,-99.99,,,-99.99,,2013-01-29 20:53:00,
2013-01-29 15:02:00,36.0,34.0,29.62,North,350,17.0,22.0,93,-99.99,,,-99.99,,2013-01-29 21:02:00,
2013-01-29 15:12:00,36.0,34.0,29.61,North,350,17.0,23.0,93,-99.99,,,-99.99,,2013-01-29 21:12:00,
2013-01-29 15:22:00,34.0,34.0,29.63,North,350,15.0,21.0,100,-99.99,,,-99.99,,2013-01-29 21:22:00,
2013-01-29 15:33:00,34.0,34.0,29.65,North,350,13.0,18.0,100,-99.99,,,-99.99,,2013-01-29 21:33:00,
2013-01-29 15:42:00,34.0,34.0,29.65,North,350,13.0,18.0,100,-99.99,,,-99.99,,2013-01-29 21:42:00,
2013-01-29 15:53:00,34.0,34.0,29.65,North,350,12.0,-999.0,100,-99.99,,,-99.99,,2013-01-29 21:53:00,
2013-01-29 16:02:00,34.0,34.0,29.65,North,350,12.0,-999.0,100,-99.99,,,-99.99,,2013-01-29 22:02:00,
2013-01-29 16:12:00,34.0,34.0,29.65,NNW,340,12.0,-999.0,100,-99.99,,,-99.99,,2013-01-29 22:12:00,
2013-01-29 16:22:00,34.0,34.0,29.64,NNW,340,14.0,20.0,100,-99.99,,,-99.99,,2013-01-29 22:22:00,
2013-01-29 16:33:00,34.0,34.0,29.65,NNW,330,14.0,-999.0,100,-99.99,,,-99.99,,2013-01-29 22:33:00,
2013-01-29 16:42:00,34.0,34.0,29.65,NNW,340,16.0,-999.0,100,-99.99,,,-99.99,,2013-01-29 22:42:00,
2013-01-29 16:53:00,34.0,34.0,29.65,NNW,340,12.0,-999.0,100,-99.99,,,-99.99,,2013-01-29 22:53:00,
2013-01-29 17:02:00,34.0,34.0,29.65,NNW,340,12.0,-999.0,100,-99.99,,,-99.99,,2013-01-29 23:02:00,
2013-01-29 17:12:00,34.0,34.0,29.62,NNW,330,15.0,20.0,100,-99.99,,,-99.99,,2013-01-29 23:12:00,
2013-01-29 17:22:00,34.0,34.0,29.65,NNW,340,15.0,18.0,100,-99.99,,,-99.99,,2013-01-29 23:22:00,
2013-01-29 17:32:00,34.0,34.0,29.67,NNW,340,12.0,-999.0,100,-99.99,,,-99.99,,2013-01-29 23:32:00,
2013-01-29 17:42:00,34.0,34.0,29.67,North,350,15.0,23.0,100,-99.99,,,-99.99,,2013-01-29 23:42:00,
2013-01-29 17:53:00,34.0,34.0,29.68,NNW,340,18.0,24.0,100,-99.99,,,-99.99,,2013-01-29 23:53:00,
2013-01-29 18:02:00,34.0,34.0,29.68,NNW,340,18.0,24.0,100,-99.99,,,-99.99,,2013-01-30 00:02:00,
2013-01-29 18:11:00,34.0,34.0,29.69,North,350,14.0,21.0,100,-99.99,,,-99.99,,2013-01-30 00:11:00,
2013-01-29 18:22:00,34.0,34.0,29.70,NNW,340,15.0,-999.0,100,-99.99,,,-99.99,,2013-01-30 00:22:00,
2013-01-29 18:32:00,34.0,34.0,29.70,North,350,14.0,-999.0,100,-99.99,,,-99.99,,2013-01-30 00:32:00,
2013-01-29 18:42:00,34.0,34.0,29.70,North,350,18.0,23.0,100,-99.99,,,-99.99,,2013-01-30 00:42:00,
2013-01-29 18:53:00,32.0,32.0,29.71,North,350,17.0,23.0,100,-99.99,,,-99.99,,2013-01-30 00:53:00,
2013-01-29 19:01:00,32.0,32.0,29.71,North,350,17.0,23.0,100,-99.99,,,-99.99,,2013-01-30 01:01:00,
2013-01-29 19:11:00,32.0,32.0,29.71,North,360,16.0,23.0,100,-99.99,,,-99.99,,2013-01-30 01:11:00,
2013-01-29 19:22:00,32.0,32.0,29.72,North,360,16.0,22.0,100,-99.99,,,-99.99,,2013-01-30 01:22:00,
2013-01-29 19:32:00,32.0,32.0,29.72,North,350,12.0,-999.0,100,-99.99,,,-99.99,,2013-01-30 01:32:00,
2013-01-29 19:42:00,32.0,32.0,29.72,North,350,9.0,-999.0,100,-99.99,,,-99.99,,2013-01-30 01:42:00,
2013-01-29 19:52:00,32.0,32.0,29.73,NNW,340,6.0,-999.0,100,-99.99,,,-99.99,,2013-01-30 01:52:00,
2013-01-29 20:02:00,32.0,32.0,29.73,NNW,340,6.0,-999.0,100,-99.99,,,-99.99,,2013-01-30 02:02:00,
2013-01-29 20:12:00,32.0,32.0,29.72,NNW,340,14.0,-999.0,100,-99.99,,,-99.99,,2013-01-30 02:12:00,
2013-01-29 20:21:00,32.0,32.0,29.72,NNW,340,15.0,18.0,100,-99.99,,,-99.99,,2013-01-30 02:21:00,
2013-01-29 20:33:00,32.0,32.0,29.72,NNW,340,14.0,-999.0,100,-99.99,,,-99.99,,2013-01-30 02:33:00,
2013-01-29 20:42:00,32.0,32.0,29.72,NNW,340,10.0,-999.0,100,-99.99,,,-99.99,,2013-01-30 02:42:00,
2013-01-29 20:53:00,32.0,32.0,29.73,NNW,340,10.0,-999.0,100,-99.99,,,-99.99,,2013-01-30 02:53:00,
2013-01-29 21:02:00,32.0,32.0,29.73,NNW,340,10.0,-999.0,100,-99.99,,,-99.99,,2013-01-30 03:02:00,
2013-01-29 21:11:00,32.0,32.0,29.73,NW,320,13.0,-999.0,100,-99.99,,,-99.99,,2013-01-30 03:11:00,
2013-01-29 21:22:00,32.0,32.0,29.74,NNW,330,15.0,21.0,100,-99.99,,,-99.99,,2013-01-30 03:22:00,
2013-01-29 21:32:00,32.0,32.0,29.74,NNW,330,15.0,-999.0,100,-99.99,,,-99.99,,2013-01-30 03:32:00,
2013-01-29 21:42:00,34.0,34.0,29.74,NNW,330,18.0,22.0,100,-99.99,,,-99.99,,2013-01-30 03:42:00,
2013-01-29 21:52:00,34.0,34.0,29.74,NNW,330,20.0,28.0,100,-99.99,,,-99.99,,2013-01-30 03:52:00,
2013-01-29 22:02:00,34.0,34.0,29.74,NNW,330,20.0,28.0,100,-99.99,,,-99.99,,2013-01-30 04:02:00,
2013-01-29 22:11:00,34.0,34.0,29.75,NW,320,21.0,30.0,100,-99.99,,,-99.99,,2013-01-30 04:11:00,
2013-01-29 22:22:00,34.0,34.0,29.75,NNW,330,18.0,24.0,100,-99.99,,,-99.99,,2013-01-30 04:22:00,
2013-01-29 22:32:00,34.0,32.0,29.75,NNW,330,23.0,-999.0,93,-99.99,,,-99.99,,2013-01-30 04:32:00,
2013-01-29 22:41:00,32.0,32.0,29.75,NNW,340,18.0,28.0,100,-99.99,,,-99.99,,2013-01-30 04:41:00,
2013-01-29 22:52:00,32.0,32.0,29.75,NNW,340,16.0,23.0,100,-99.99,,,-99.99,,2013-01-30 04:52:00,
2013-01-29 23:03:00,32.0,32.0,29.75,NNW,340,16.0,23.0,100,-99.99,,,-99.99,,2013-01-30 05:03:00,
2013-01-29 23:12:00,32.0,32.0,29.75,NNW,340,17.0,27.0,100,-99.99,,,-99.99,,2013-01-30 05:12:00,
2013-01-29 23:22:00,32.0,32.0,29.75,NNW,340,14.0,21.0,100,-99.99,,,-99.99,,2013-01-30 05:22:00,
2013-01-29 23:32:00,32.0,32.0,29.75,NNW,330,13.0,-999.0,100,-99.99,,,-99.99,,2013-01-30 05:32:00,
2013-01-29 23:42:00,30.0,30.0,29.75,NW,320,13.0,-999.0,100,-99.99,,,-99.99,,2013-01-30 05:42:00,
2013-01-29 23:52:00,30.0,30.0,29.76,NW,320,13.0,-999.0,100,-99.99,,,-99.99,,2013-01-30 05:52:00,